Regional Weather Roundup
Issued by NWS

Home | Current Version | Previous Version | Graphics & Text | Print | Product List | Glossary On
Versions: 1 2 3 4 5 6 7 8 9 10 11 12 13 14 15 16 17 18 19 20 21 22 23 24 25 26 27 28 29 30 31 32 33 34 35 36 37 38 39 40 41 42 43 44 45 46 47 48 49 50
486
ASUS43 KLMK 231910
RWRKY
KENTUCKY REGIONAL WEATHER ROUNDUP
NATIONAL WEATHER SERVICE LOUISVILLE KY
300 PM EDT FRI JUN 23 2017

NOTE "FAIR" INDICATES FEW OR NO CLOUDS BELOW 12,000 FEET
WITH NO SIGNIFICANT WEATHER AND/OR OBSTRUCTIONS TO VISIBILITY.

KYZ001>023-026-027-061>063-070>075-232000-
WESTERN AND SOUTH CENTRAL KENTUCKY

CITY           SKY/WX    TMP DP  RH WIND       PRES   REMARKS
PADUCAH        CLOUDY    80  74  81 NW7       29.67R
HENDERSON      LGT RAIN  75  73  93 NW3       29.68S
OWENSBORO      LGT RAIN  74  73  97 SE7       29.67F FOG
HOPKINSVILLE   DRIZZLE   75  75 100 S16G22    29.62F FOG
BOWLING GREEN  RAIN      77  75  93 SE9       29.69F FOG
GLASGOW        RAIN      74  74 100 SW6       29.73F
$$

KYZ024-025-028>034-038-045-046-053-232000-
NORTH CENTRAL KENTUCKY

CITY           SKY/WX    TMP DP  RH WIND       PRES   REMARKS
LOUISVILLE/SDF LGT RAIN  80  74  81 SW6       29.70F
LOUISVILLE/LOU LGT RAIN  79  75  87 SW6       29.71F
FORT KNOX      HVY RAIN  77  73  88 S10G18    29.71R FOG
$$

KYZ035>037-039>044-047>052-055>060-089>105-232000-
NORTHEAST KENTUCKY

CITY           SKY/WX    TMP DP  RH WIND       PRES   REMARKS
LEXINGTON      CLOUDY    83  69  62 SW16      29.75F
COVINGTON      HVY RAIN  73  72  96 NW10      29.74F FOG
FRANKFORT      CLOUDY    83  70  64 S10       29.72F
$$

KYZ054-064>069-076>088-106>120-232000-
SOUTHEAST KENTUCKY

CITY           SKY/WX    TMP DP  RH WIND       PRES   REMARKS
JACKSON        CLOUDY    78  71  79 VRB6      29.83F
LONDON         CLOUDY    77  71  82 S6        29.82F
SOMERSET       CLOUDY    77  75  94 S7        29.80F
MIDDLESBORO    CLOUDY    82  69  65 S8G17     29.86F
MONTICELLO     CLOUDY    80  73  79 S9G21     29.80F
$$





USA.gov is the U.S. government's official web portal to all federal, state and local government web resources and services.